This is the latest recevied weather packets stored in our database for station/object EA3ANS-1. If no packets are shown the sender has not sent any weather packets the latest 1 day(s).
| Time | Temp. | Humidity | Pressure | Rain* | Wind** | Luminosity | Snow |
|---|---|---|---|---|---|---|---|
| 1778001760 | 13.89° C | - | 1009.8 hPa | 2.03 mm | 0 m/s | - | - |
| 1778001160 | 13.89° C | - | 1009.5 hPa | 2.03 mm | 1.34 m/s, 3° | - | - |
| 1778000563 | 13.89° C | - | 1009.8 hPa | 2.03 mm | 0 m/s | - | - |
| 1777999964 | 14.44° C | - | 1010 hPa | 2.03 mm | 1.79 m/s, 70° | - | - |
| 1777999361 | 14.44° C | - | 1010.1 hPa | 2.03 mm | 0 m/s | - | - |
| 1777998761 | 13.89° C | - | 1010.5 hPa | 2.03 mm | 1.34 m/s, 287° | - | - |
| 1777998159 | 15° C | - | 1010.2 hPa | 2.03 mm | 0 m/s | - | - |
| 1777997560 | 15° C | - | 1010.3 hPa | 2.03 mm | 2.24 m/s, 312° | - | - |
| 1777996962 | 15° C | - | 1010.5 hPa | 2.03 mm | 0 m/s | - | - |
| 1777996364 | 15° C | - | 1010.4 hPa | 0 mm | 0.45 m/s, 333° | - | - |
| 1777995763 | 15.56° C | - | 1010.1 hPa | 0 mm | 2.68 m/s, 298° | - | - |
| 1777995160 | 16.67° C | - | 1009.8 hPa | 0 mm | 3.13 m/s, 293° | - | - |
| 1777994563 | 18.89° C | - | 1009.3 hPa | 0 mm | 2.68 m/s, 188° | - | - |
| 1777993959 | 18.89° C | - | 1008.7 hPa | 0 mm | 3.58 m/s, 135° | - | - |
| 1777993360 | 19.44° C | - | 1008.6 hPa | 0 mm | 3.13 m/s, 166° | - | - |
| 1777992762 | 20° C | - | 1009 hPa | 0 mm | 2.24 m/s, 155° | - | - |
| 1777992164 | 20.56° C | - | 1007.2 hPa | 0 mm | 4.47 m/s, 143° | - | - |
| 1777991564 | 21.11° C | - | 1008.6 hPa | 0 mm | 4.02 m/s, 131° | - | - |
| 1777990960 | 20.56° C | - | 1009.1 hPa | 0 mm | 2.68 m/s, 166° | - | - |
| 1777990361 | 21.11° C | - | 1009.1 hPa | 0 mm | 2.68 m/s, 138° | - | - |
| 1777989760 | 20.56° C | - | 1009.1 hPa | 0 mm | 3.13 m/s, 145° | - | - |
| 1777989159 | 20° C | - | 1009.2 hPa | 0 mm | 1.79 m/s, 215° | - | - |
| 1777988561 | 20° C | - | 1009.6 hPa | 0 mm | 2.68 m/s, 155° | - | - |
| 1777987962 | 20.56° C | - | 1009.8 hPa | 0 mm | 2.68 m/s, 169° | - | - |
| 1777987365 | 20.56° C | - | 1009.8 hPa | 0 mm | 0.89 m/s, 198° | - | - |
* Rain latest hour (hover to see other rain measurements)
** Current wind speed in m/s (hover to see current wind gust speed)